EW0402 Weather Reports


Display with metric or nautical units.
time (UTC)temp
F
wind
direction
speed
MPH
gust
MPH
rain 1hr
in
rain 24hr
in
rain mn
in
humidity
%
barometer
mb
20260906124520 77 234 0.0 2.0 0.00 0.00 0.00 98 1014.5
20260906123028 77 154 0.0 1.0 0.00 0.00 0.00 98 1014.3
20260906121515 76 154 0.0 1.0 0.00 0.00 0.00 97 1014.1
20260906120014 76 154 0.0 0.0 0.00 0.00 0.00 97 1014.0
20260906114512 75 154 0.0 1.0 0.00 0.00 0.00 97 1014.1
20260906113014 76 146 0.0 1.0 0.00 0.00 0.00 97 1013.7
20260906111509 75 240 0.0 0.0 0.00 0.00 0.00 97 1013.8
20260906110009 76 240 0.0 0.0 0.00 0.00 0.00 97 1013.7
20260906104518 76 240 0.0 0.0 0.00 0.00 0.00 97 1013.4
20260906103029 76 240 0.0 0.0 0.00 0.00 0.00 97 1013.1
20260906101508 76 240 0.0 0.0 0.00 0.00 0.00 97 1013.0
20260906100023 76 240 0.0 0.0 0.00 0.00 0.00 97 1013.2
20260906094507 76 240 0.0 0.0 0.00 0.00 0.00 96 1013.2
20260906093015 76 240 0.0 0.0 0.00 0.00 0.00 97 1013.0
20260906091517 76 240 0.0 0.0 0.00 0.00 0.00 96 1012.9
20260906090006 76 240 0.0 0.0 0.00 0.00 0.00 96 1012.9
20260906084506 76 240 0.0 0.0 0.00 0.00 0.00 96 1012.7
20260906083002 76 240 0.0 0.0 0.00 0.00 0.00 96 1012.8
20260906081502 76 240 0.0 0.0 0.00 0.00 0.00 96 1012.8
20260906080002 76 240 0.0 0.0 0.00 0.00 0.00 95 1012.9
20260906074501 76 240 0.0 0.0 0.00 0.00 0.00 96 1012.9
20260906073001 77 240 0.0 0.0 0.00 0.00 0.00 96 1012.7
20260906071600 77 240 0.0 0.0 0.00 0.00 0.00 96 1012.8
20260906070059 77 240 0.0 0.0 0.00 0.00 0.00 96 1012.8
20260906064559 77 240 0.0 2.0 0.00 0.00 0.00 96 1012.9
20260906063057 77 238 0.0 1.0 0.00 0.00 0.00 97 1012.9
20260906061555 77 238 0.0 2.0 0.00 0.00 0.00 96 1012.9
20260906060053 77 238 0.0 2.0 0.00 0.00 0.00 96 1013.0
20260906054604 77 238 0.0 0.0 0.00 0.00 0.00 95 1013.4
20260906053052 77 238 0.0 2.0 0.00 0.00 0.00 96 1013.2
20260906051550 77 238 0.0 2.0 0.00 0.00 0.00 96 1013.2
20260906050055 77 238 0.0 0.0 0.00 0.00 0.00 95 1013.4
20260906044547 77 238 0.0 0.0 0.00 0.00 0.00 95 1013.4
20260906043045 77 238 0.0 1.0 0.00 0.00 0.00 95 1013.5
20260906041543 77 238 0.0 0.0 0.00 0.00 0.00 94 1013.8
20260906040047 77 238 0.0 1.0 0.00 0.00 0.00 94 1013.9
20260906034548 78 238 0.0 0.0 0.00 0.00 0.00 94 1014.0
20260906033040 78 238 0.0 0.0 0.00 0.00 0.00 93 1014.2
20260906031603 78 238 0.0 0.0 0.00 0.00 0.00 93 1014.4
20260906030039 78 238 0.0 1.0 0.00 0.00 0.00 92 1014.4
20260906024554 79 238 0.0 0.0 0.00 0.00 0.00 92 1014.2
20260906023044 79 238 0.0 1.0 0.00 0.00 0.00 92 1013.8
20260906021537 79 238 0.0 0.0 0.00 0.00 0.00 91 1013.4
20260906020140 79 238 0.0 1.0 0.00 0.00 0.00 91 1013.2
20260906014537 80 238 0.0 1.0 0.00 0.00 0.00 90 1013.2
20260906013037 80 238 0.0 0.0 0.00 0.00 0.00 90 1013.0
20260906011535 80 238 0.0 2.0 0.00 0.00 0.00 89 1012.8
20260906010046 81 237 0.0 1.0 0.00 0.00 0.00 89 1012.8
20260906004535 81 237 0.0 2.0 0.00 0.00 0.00 88 1012.6
20260906003034 82 236 0.0 0.0 0.00 0.00 0.00 88 1012.6
20260906001536 82 236 0.0 0.0 0.00 0.00 0.00 87 1012.7
20260906000032 82 236 0.0 0.0 0.00 0.02 0.00 86 1012.6
20260905234532 83 236 0.0 0.0 0.00 0.02 0.00 86 1012.7
20260905233032 83 236 0.0 0.0 0.00 0.02 0.00 85 1012.6
20260905231531 84 235 0.0 0.0 0.00 0.02 0.00 84 1012.7
20260905230034 84 242 0.0 4.0 0.00 0.08 0.00 83 1012.7
20260905224529 85 126 1.0 2.0 0.00 0.08 0.00 83 1013.0
20260905223031 86 223 0.0 1.0 0.00 0.08 0.00 83 1013.3
20260905221528 86 221 0.0 4.0 0.00 0.08 0.00 82 1013.3
20260905220028 87 319 0.0 2.0 0.00 0.28 0.00 82 1013.3
20260905214527 87 274 0.0 2.0 0.00 0.28 0.00 79 1013.0
20260905213027 89 117 1.0 4.0 0.00 0.28 0.00 76 1013.0
20260905211551 89 346 1.0 4.0 0.00 0.28 0.00 77 1013.0
20260905210025 90 234 0.0 2.0 0.00 1.53 0.00 74 1012.9
20260905204525 91 234 0.0 3.0 0.00 1.53 0.00 71 1013.0
20260905203022 91 38 0.0 4.0 0.00 1.53 0.00 71 1013.2
20260905201530 91 265 0.0 3.0 0.00 1.53 0.00 71 1013.4
20260905200019 92 171 1.0 4.0 0.00 1.75 0.00 69 1013.5
20260905194516 92 267 1.0 6.0 0.00 1.75 0.00 74 1013.8
20260905193015 91 240 1.0 4.0 0.00 1.75 0.00 71 1013.9
20260905191512 92 73 1.0 4.0 0.00 1.75 0.00 73 1014.2
20260905190009 91 213 2.0 6.0 0.00 1.75 0.00 76 1014.2
20260905184507 91 264 0.0 6.0 0.00 1.75 0.00 75 1014.1
20260905183003 90 349 0.0 4.0 0.00 1.75 0.00 78 1014.3
20260905181559 90 170 0.0 4.0 0.00 1.75 0.00 79 1014.6
20260905180103 89 113 1.0 4.0 0.00 1.75 0.00 80 1014.9
20260905174555 88 313 1.0 3.0 0.00 1.75 0.00 81 1014.8
20260905173102 87 235 0.0 3.0 0.00 1.75 0.00 83 1015.2
20260905171551 87 332 0.0 4.0 0.00 1.75 0.00 83 1015.4
20260905170047 86 250 1.0 3.0 0.00 1.75 0.00 87 1015.6
20260905164543 85 225 1.0 2.0 0.00 1.75 0.00 88 1015.7
20260905163041 84 279 1.0 4.0 0.00 1.75 0.00 89 1016.0
20260905161538 84 84 0.0 3.0 0.00 1.75 0.00 88 1016.0
20260905160036 84 214 1.0 3.0 0.00 1.75 0.00 90 1016.1
20260905154535 83 246 0.0 5.0 0.00 1.75 0.00 91 1016.2
20260905153030 83 229 1.0 3.0 0.00 1.75 0.00 93 1016.4
20260905151530 83 269 0.0 2.0 0.00 1.75 0.00 92 1016.6
20260905150027 83 229 0.0 2.0 0.00 1.75 0.00 94 1016.3
20260905144524 81 184 1.0 4.0 0.00 1.75 0.00 96 1016.3
20260905143027 80 213 0.0 1.0 0.00 1.75 0.00 97 1016.2
20260905141525 80 213 0.0 2.0 0.00 1.75 0.00 97 1016.2
20260905140015 79 213 0.0 1.0 0.00 1.75 0.00 98 1016.4
20260905134512 78 209 0.0 1.0 0.00 1.75 0.00 97 1016.6
20260905133009 78 209 0.0 2.0 0.00 1.75 0.00 98 1016.6
20260905131509 78 205 0.0 2.0 0.00 1.75 0.00 98 1016.5
20260905130004 77 204 0.0 1.0 0.00 1.75 0.00 98 1016.4